,,,PA_Meas_PMT16A,,PR_Meas_QMR101_102,,RH_Meas_QMH101,,SR_Meas_QMS101,,TA_Meas_QMH101,,GenWind,,GenWind,
date,time,status,PA,status,PR,status,RH,status,SR,status,TA,status,DirAvg,status,SpdAvg,
2008-04-16, 00:00:04,VALID,1003.47,VALID,0,VALID,93.5377,VALID,0,VALID,24.2504,VALID,8,VALID,0.672266,
2008-04-16, 00:01:04,VALID,1003.43,VALID,0,VALID,93.2402,VALID,0,VALID,24.2504,VALID,344,VALID,1.19219,
2008-04-16, 00:02:04,VALID,1003.44,VALID,0,VALID,93.141,VALID,0,VALID,24.2504,VALID,352,VALID,1.35,
2008-04-16, 00:03:04,VALID,1003.41,VALID,0,VALID,93.4996,VALID,0,VALID,24.2699,VALID,1,VALID,0.454688,
2008-04-16, 00:04:04,VALID,1003.4,VALID,0,VALID,93.5606,VALID,0,VALID,24.2717,VALID,351,VALID,0.339453,
2008-04-16, 00:05:04,VALID,1003.38,VALID,0,VALID,93.5758,VALID,0,VALID,24.2504,VALID,314,VALID,0.416406,
2008-04-16, 00:06:04,VALID,1003.36,VALID,0,VALID,93.2554,VALID,0,VALID,24.2717,VALID,360,VALID,0.751172,
2008-04-16, 00:07:04,VALID,1003.35,VALID,0,VALID,93.0876,VALID,0,VALID,24.2912,VALID,354,VALID,0.509375,
2008-04-16, 00:08:04,VALID,1003.3,VALID,0,VALID,93.0647,VALID,0,VALID,24.3302,VALID,314,VALID,0.660156,
2008-04-16, 00:09:04,VALID,1003.24,VALID,0,VALID,92.8892,VALID,0,VALID,24.3283,VALID,341,VALID,1.17813,
2008-04-16, 00:10:04,VALID,1003.24,VALID,0,VALID,93.1334,VALID,0,VALID,24.3673,VALID,327,VALID,0.63125,
2008-04-16, 00:11:04,VALID,1003.23,VALID,0,VALID,92.7214,VALID,0,VALID,24.3691,VALID,334,VALID,0.950781,
2008-04-16, 00:12:04,VALID,1003.21,VALID,0,VALID,92.6756,VALID,0,VALID,24.3673,VALID,345,VALID,1.08828,
2008-04-16, 00:13:04,VALID,1003.22,VALID,0,VALID,92.874,VALID,0,VALID,24.3673,VALID,344,VALID,1.00898,
2008-04-16, 00:14:04,VALID,1003.18,VALID,0,VALID,93.0189,VALID,0,VALID,24.3673,VALID,342,VALID,0.510938,
2008-04-16, 00:15:04,VALID,1003.18,VALID,0,VALID,92.7672,VALID,0,VALID,24.3673,VALID,344,VALID,1.18438,
2008-04-16, 00:16:04,VALID,1003.18,VALID,0,VALID,92.9961,VALID,0,VALID,24.3886,VALID,337,VALID,0.726563,
2008-04-16, 00:17:04,VALID,1003.17,VALID,0,VALID,92.9426,VALID,0,VALID,24.3867,VALID,330,VALID,1.07578,
2008-04-16, 00:18:04,VALID,1003.15,VALID,0,VALID,93.141,VALID,0,VALID,24.3886,VALID,357,VALID,0.358203,
2008-04-16, 00:19:04,VALID,1003.17,VALID,0,VALID,92.9655,VALID,0,VALID,24.3673,VALID,1,VALID,0.833203,
2008-04-16, 00:20:04,VALID,1003.16,VALID,0,VALID,92.8282,VALID,0,VALID,24.3886,VALID,359,VALID,1.16758,
2008-04-16, 00:21:04,VALID,1003.15,VALID,0,VALID,92.7977,VALID,0,VALID,24.3673,VALID,342,VALID,1.45781,
2008-04-16, 00:22:04,VALID,1003.1,VALID,0,VALID,92.9426,VALID,0,VALID,24.408,VALID,350,VALID,0.582812,
2008-04-16, 00:23:04,VALID,1003.1,VALID,0,VALID,91.2567,VALID,0,VALID,24.3867,VALID,360,VALID,0.794531,
2008-04-16, 00:24:04,VALID,1003.11,VALID,0,VALID,92.8969,VALID,0,VALID,24.3654,VALID,345,VALID,0.803516,
2008-04-16, 00:25:04,VALID,1003.13,VALID,0,VALID,93.347,VALID,0,VALID,24.3886,VALID,337,VALID,0.310937,
2008-04-16, 00:26:04,VALID,1003.12,VALID,0,VALID,93.3622,VALID,0,VALID,24.3478,VALID,348,VALID,0.327734,
2008-04-16, 00:27:04,VALID,1003.16,VALID,0,VALID,93.1181,VALID,0,VALID,24.3478,VALID,352,VALID,0.896094,
2008-04-16, 00:28:04,VALID,1003.21,VALID,0,VALID,92.9198,VALID,0,VALID,24.3478,VALID,332,VALID,0.879297,
2008-04-16, 00:29:04,VALID,1003.23,VALID,0,VALID,92.6375,VALID,0,VALID,24.3283,VALID,342,VALID,1.60391,
2008-04-16, 00:30:04,VALID,1003.18,VALID,0,VALID,92.5307,VALID,0,VALID,24.3478,VALID,340,VALID,1.12734,
2008-04-16, 00:31:04,VALID,1003.16,VALID,0,VALID,92.4468,VALID,0,VALID,24.3691,VALID,341,VALID,1.05664,
2008-04-16, 00:32:04,VALID,1003.14,VALID,0,VALID,92.3629,VALID,0,VALID,24.3691,VALID,347,VALID,1.15547,
2008-04-16, 00:33:04,VALID,1003.1,VALID,0,VALID,92.1416,VALID,0,VALID,24.3478,VALID,331,VALID,1.20703,
2008-04-16, 00:34:04,VALID,1003.13,VALID,0,VALID,92.3629,VALID,0,VALID,24.3886,VALID,357,VALID,0.602344,
2008-04-16, 00:35:04,VALID,1003.1,VALID,0,VALID,92.4163,VALID,0,VALID,24.3673,VALID,351,VALID,0.803906,
2008-04-16, 00:36:04,VALID,1003.08,VALID,0,VALID,92.6146,VALID,0,VALID,24.3673,VALID,347,VALID,0.621484,
2008-04-16, 00:37:04,VALID,1003.09,VALID,0,VALID,92.6604,VALID,0,VALID,24.3478,VALID,347,VALID,0.501562,
2008-04-16, 00:38:04,VALID,1003.07,VALID,0,VALID,91.2796,VALID,0,VALID,24.307,VALID,344,VALID,0.14375,
2008-04-16, 00:39:04,VALID,1003.02,VALID,0,VALID,93.0495,VALID,0,VALID,24.3283,VALID,344,VALID,0.0257812,
2008-04-16, 00:40:04,VALID,1003.03,VALID,0,VALID,93.0495,VALID,0,VALID,24.3088,VALID,345,VALID,0.598047,
2008-04-16, 00:41:04,VALID,1003.02,VALID,0,VALID,93.2173,VALID,0,VALID,24.3302,VALID,354,VALID,0.551172,
2008-04-16, 00:42:04,VALID,1002.97,VALID,0,VALID,93.1486,VALID,0,VALID,24.3302,VALID,344,VALID,0.497656,
2008-04-16, 00:43:04,VALID,1002.92,VALID,0,VALID,92.6909,VALID,0,VALID,24.3478,VALID,350,VALID,0.96875,
2008-04-16, 00:44:04,VALID,1002.96,VALID,0,VALID,92.7672,VALID,0,VALID,24.4257,VALID,350,VALID,0.919141,
2008-04-16, 00:45:04,VALID,1002.96,VALID,0,VALID,92.7062,VALID,0,VALID,24.4451,VALID,8,VALID,0.579297,
2008-04-16, 00:46:04,VALID,1002.99,VALID,0,VALID,92.5078,VALID,0,VALID,24.4451,VALID,350,VALID,1.21328,
2008-04-16, 00:47:04,VALID,1002.93,VALID,0,VALID,92.1264,VALID,0,VALID,24.4646,VALID,348,VALID,1.59922,
2008-04-16, 00:48:04,VALID,1002.92,VALID,0,VALID,91.9433,VALID,0,VALID,24.5249,VALID,352,VALID,1.48164,
2008-04-16, 00:49:04,VALID,1002.93,VALID,0,VALID,91.8899,VALID,0,VALID,24.5638,VALID,358,VALID,1.075,
2008-04-16, 00:50:04,VALID,1002.97,VALID,0,VALID,91.9051,VALID,0,VALID,24.5814,VALID,358,VALID,1.44375,
2008-04-16, 00:51:04,VALID,1002.95,VALID,0,VALID,91.6152,VALID,0,VALID,24.562,VALID,353,VALID,1.26367,
2008-04-16, 00:52:04,VALID,1002.95,VALID,0,VALID,91.6686,VALID,0,VALID,24.5814,VALID,354,VALID,1.32344,
2008-04-16, 00:53:04,VALID,1002.98,VALID,0,VALID,89.8987,VALID,0,VALID,24.5814,VALID,347,VALID,1.55,
2008-04-16, 00:54:04,VALID,1003,VALID,0,VALID,91.1728,VALID,0,VALID,24.6009,VALID,353,VALID,2.04922,
2008-04-16, 00:55:04,VALID,1002.97,VALID,0,VALID,91.6534,VALID,0,VALID,24.6593,VALID,353,VALID,0.836719,
2008-04-16, 00:56:04,VALID,1002.97,VALID,0,VALID,91.4474,VALID,0,VALID,24.6593,VALID,360,VALID,1.27383,
2008-04-16, 00:57:04,VALID,1002.96,VALID,0,VALID,91.2872,VALID,0,VALID,24.6788,VALID,327,VALID,1.26484,
2008-04-16, 00:58:04,VALID,1002.94,VALID,0,VALID,91.2338,VALID,0,VALID,24.6574,VALID,353,VALID,1.13047,
2008-04-16, 00:59:04,VALID,1002.9,VALID,0,VALID,91.6305,VALID,0,VALID,24.7001,VALID,359,VALID,0.523828,
2008-04-16, 01:00:04,VALID,1002.89,VALID,0,VALID,91.7297,VALID,0,VALID,24.6788,VALID,360,VALID,0.765625,
2008-04-16, 01:01:04,VALID,1002.91,VALID,0,VALID,91.8975,VALID,0,VALID,24.6593,VALID,9,VALID,0.885938,
2008-04-16, 01:02:04,VALID,1002.91,VALID,0,VALID,90.8218,VALID,0,VALID,24.6593,VALID,348,VALID,2.30156,
2008-04-16, 01:03:04,VALID,1002.92,VALID,0,VALID,90.7837,VALID,0,VALID,24.7761,VALID,347,VALID,1.01016,
2008-04-16, 01:04:04,VALID,1002.91,VALID,0,VALID,91.0278,VALID,0,VALID,24.8364,VALID,302,VALID,0.490234,
2008-04-16, 01:05:04,VALID,1002.92,VALID,0,VALID,90.6692,VALID,0,VALID,24.8754,VALID,300,VALID,1.18203,
2008-04-16, 01:06:04,VALID,1002.87,VALID,0,VALID,90.6921,VALID,0,VALID,24.854,VALID,329,VALID,1.37461,
2008-04-16, 01:07:04,VALID,1002.88,VALID,0,VALID,91.0659,VALID,0,VALID,24.8346,VALID,341,VALID,0.575,
2008-04-16, 01:08:04,VALID,1002.87,VALID,0,VALID,89.6012,VALID,0,VALID,24.8346,VALID,273,VALID,0.469531,
2008-04-16, 01:09:04,VALID,1002.83,VALID,0,VALID,91.3177,VALID,0,VALID,24.7956,VALID,336,VALID,0.802344,
2008-04-16, 01:10:04,VALID,1002.82,VALID,0,VALID,91.455,VALID,0,VALID,24.7567,VALID,310,VALID,0.853906,
2008-04-16, 01:11:04,VALID,1002.75,VALID,0,VALID,91.2414,VALID,0,VALID,24.7372,VALID,337,VALID,1.23438,
2008-04-16, 01:12:04,VALID,1002.73,VALID,0,VALID,91.1422,VALID,0,VALID,24.7372,VALID,352,VALID,1.2082,
2008-04-16, 01:13:04,VALID,1002.7,VALID,0,VALID,91.3787,VALID,0,VALID,24.7391,VALID,359,VALID,0.967578,
2008-04-16, 01:14:04,VALID,1002.65,VALID,0,VALID,91.722,VALID,0,VALID,24.7196,VALID,287,VALID,0.4125,
2008-04-16, 01:15:04,VALID,1002.64,VALID,0,VALID,91.6,VALID,0,VALID,24.6788,VALID,321,VALID,0.527734,
2008-04-16, 01:16:04,VALID,1002.6,VALID,0,VALID,91.4398,VALID,0,VALID,24.7196,VALID,350,VALID,1.0207,
2008-04-16, 01:17:04,VALID,1002.63,VALID,0,VALID,91.4398,VALID,0,VALID,24.6807,VALID,353,VALID,1.22227,
2008-04-16, 01:18:04,VALID,1002.53,VALID,0,VALID,91.661,VALID,0,VALID,24.6593,VALID,312,VALID,0.779297,
2008-04-16, 01:19:04,VALID,1002.45,VALID,0,VALID,91.3482,VALID,0,VALID,24.6204,VALID,340,VALID,1.80391,
2008-04-16, 01:20:04,VALID,1002.46,VALID,0,VALID,91.7373,VALID,0,VALID,24.6593,VALID,303,VALID,0.890234,
2008-04-16, 01:21:04,VALID,1002.47,VALID,0,VALID,91.3177,VALID,0,VALID,24.6593,VALID,352,VALID,1.52422,
2008-04-16, 01:22:04,VALID,1002.42,VALID,0,VALID,91.5847,VALID,0,VALID,24.6398,VALID,352,VALID,0.863281,
2008-04-16, 01:23:04,VALID,1002.4,VALID,0,VALID,90.0818,VALID,0,VALID,24.6417,VALID,326,VALID,0.216016,
2008-04-16, 01:24:04,VALID,1002.36,VALID,0,VALID,91.6076,VALID,0,VALID,24.5425,VALID,340,VALID,1.61523,
2008-04-16, 01:25:04,VALID,1002.32,VALID,0,VALID,92.0196,VALID,0,VALID,24.5833,VALID,301,VALID,1.05859,
2008-04-16, 01:26:04,VALID,1002.29,VALID,0,VALID,92.2561,VALID,0,VALID,24.562,VALID,296,VALID,0.170312,
2008-04-16, 01:27:04,VALID,1002.26,VALID,0,VALID,92.3934,VALID,0,VALID,24.5425,VALID,292,VALID,0.185547,
2008-04-16, 01:28:04,VALID,1002.23,VALID,0,VALID,92.4468,VALID,0,VALID,24.523,VALID,313,VALID,0.505469,
2008-04-16, 01:29:04,VALID,1002.2,VALID,0,VALID,92.4925,VALID,0,VALID,24.523,VALID,341,VALID,0.638672,
2008-04-16, 01:30:04,VALID,1002.19,VALID,0,VALID,92.2027,VALID,0,VALID,24.5035,VALID,342,VALID,1.55625,
2008-04-16, 01:31:04,VALID,1002.15,VALID,0,VALID,92.1721,VALID,0,VALID,24.5035,VALID,341,VALID,0.982422,
2008-04-16, 01:32:04,VALID,1002.14,VALID,0,VALID,92.5078,VALID,0,VALID,24.5035,VALID,340,VALID,0.539844,
2008-04-16, 01:33:04,VALID,1002.1,VALID,0,VALID,92.2484,VALID,0,VALID,24.4841,VALID,3,VALID,1.23828,
2008-04-16, 01:34:04,VALID,1002.08,VALID,0,VALID,92.4163,VALID,0,VALID,24.4646,VALID,321,VALID,0.8375,
2008-04-16, 01:35:04,VALID,1002.07,VALID,0,VALID,92.546,VALID,0,VALID,24.4646,VALID,349,VALID,0.788672,
2008-04-16, 01:36:04,VALID,1002.04,VALID,0,VALID,92.5612,VALID,0,VALID,24.4451,VALID,358,VALID,0.561328,
2008-04-16, 01:37:04,VALID,1002.01,VALID,0,VALID,92.5307,VALID,0,VALID,24.4665,VALID,355,VALID,0.850781,
2008-04-16, 01:38:04,VALID,1001.99,VALID,0,VALID,91.188,VALID,0,VALID,24.4878,VALID,357,VALID,1.00039,
2008-04-16, 01:39:04,VALID,1001.94,VALID,0,VALID,92.4315,VALID,0,VALID,24.447,VALID,350,VALID,0.912891,
2008-04-16, 01:40:04,VALID,1001.94,VALID,0,VALID,92.5612,VALID,0,VALID,24.4257,VALID,354,VALID,1.01797,
2008-04-16, 01:41:04,VALID,1001.9,VALID,0,VALID,92.7596,VALID,0,VALID,24.4062,VALID,354,VALID,1.05664,
2008-04-16, 01:42:04,VALID,1001.88,VALID,0,VALID,92.8511,VALID,0,VALID,24.3886,VALID,333,VALID,1.24297,
2008-04-16, 01:43:04,VALID,1001.84,VALID,0,VALID,92.8358,VALID,0,VALID,24.3673,VALID,356,VALID,1.77422,
2008-04-16, 01:44:04,VALID,1001.82,VALID,0,VALID,92.8664,VALID,0,VALID,24.3886,VALID,359,VALID,1.29023,
2008-04-16, 01:45:04,VALID,1001.83,VALID,0,VALID,92.8587,VALID,0,VALID,24.408,VALID,353,VALID,1.12695,
2008-04-16, 01:46:04,VALID,1001.76,VALID,0,VALID,92.8435,VALID,0,VALID,24.3886,VALID,355,VALID,1.23711,
2008-04-16, 01:47:04,VALID,1001.76,VALID,0,VALID,92.7672,VALID,0,VALID,24.3867,VALID,353,VALID,1.0957,
2008-04-16, 01:48:04,VALID,1001.73,VALID,0,VALID,92.7214,VALID,0,VALID,24.4275,VALID,359,VALID,1.57891,
2008-04-16, 01:49:04,VALID,1001.72,VALID,0,VALID,92.7519,VALID,0,VALID,24.4646,VALID,318,VALID,0.389062,
2008-04-16, 01:50:04,VALID,1001.71,VALID,0,VALID,92.668,VALID,0,VALID,24.5035,VALID,321,VALID,0.320703,
2008-04-16, 01:51:04,VALID,1001.72,VALID,0,VALID,92.195,VALID,0,VALID,24.5425,VALID,350,VALID,1.56172,
2008-04-16, 01:52:04,VALID,1001.71,VALID,0,VALID,91.8136,VALID,0,VALID,24.5814,VALID,289,VALID,1.29219,
2008-04-16, 01:53:04,VALID,1001.69,VALID,0,VALID,90.4022,VALID,0,VALID,24.6398,VALID,276,VALID,1.02891,
2008-04-16, 01:54:04,VALID,1001.69,VALID,0,VALID,91.3177,VALID,0,VALID,24.6983,VALID,339,VALID,1.34414,
2008-04-16, 01:55:04,VALID,1001.74,VALID,0,VALID,91.1422,VALID,0,VALID,24.7567,VALID,287,VALID,1.38906,
2008-04-16, 01:56:04,VALID,1001.74,VALID,0,VALID,90.8066,VALID,0,VALID,24.7956,VALID,309,VALID,1.3582,
2008-04-16, 01:57:04,VALID,1001.74,VALID,0,VALID,90.5167,VALID,0,VALID,24.8735,VALID,287,VALID,1.13398,
2008-04-16, 01:58:04,VALID,1001.8,VALID,0,VALID,90.4404,VALID,0,VALID,24.9125,VALID,296,VALID,1.27461,
2008-04-16, 01:59:04,VALID,1001.78,VALID,0,VALID,90.4327,VALID,0,VALID,24.9319,VALID,298,VALID,1.08477,
2008-04-16, 02:00:04,VALID,1001.8,VALID,0,VALID,90.4785,VALID,0,VALID,24.9514,VALID,291,VALID,1.19492,
2008-04-16, 02:01:04,VALID,1001.79,VALID,0,VALID,90.7379,VALID,0,VALID,24.9514,VALID,332,VALID,0.350391,
2008-04-16, 02:02:04,VALID,1001.8,VALID,0,VALID,90.5853,VALID,0,VALID,24.9319,VALID,292,VALID,0.896484,
2008-04-16, 02:03:04,VALID,1001.83,VALID,0,VALID,91.0583,VALID,0,VALID,24.9338,VALID,263,VALID,0.245703,
2008-04-16, 02:04:04,VALID,1001.83,VALID,0,VALID,91.0278,VALID,0,VALID,24.8735,VALID,73,VALID,0.279297,
2008-04-16, 02:05:04,VALID,1001.8,VALID,0,VALID,91.0049,VALID,0,VALID,24.8754,VALID,283,VALID,0.582031,
2008-04-16, 02:06:04,VALID,1001.81,VALID,0,VALID,90.8371,VALID,0,VALID,24.8151,VALID,282,VALID,1.1457,
2008-04-16, 02:07:04,VALID,1001.74,VALID,0,VALID,91.0736,VALID,0,VALID,24.7956,VALID,330,VALID,0.571094,
2008-04-16, 02:08:04,VALID,1001.75,VALID,0,VALID,89.6012,VALID,0,VALID,24.7761,VALID,291,VALID,0.828906,
2008-04-16, 02:09:04,VALID,1001.76,VALID,0,VALID,91.188,VALID,0,VALID,24.7761,VALID,309,VALID,0.965234,
2008-04-16, 02:10:04,VALID,1001.78,VALID,0,VALID,91.0659,VALID,0,VALID,24.7372,VALID,308,VALID,1.09766,
2008-04-16, 02:11:04,VALID,1001.8,VALID,0,VALID,90.9591,VALID,0,VALID,24.778,VALID,279,VALID,0.960938,
2008-04-16, 02:12:04,VALID,1001.8,VALID,0,VALID,90.6998,VALID,0,VALID,24.7567,VALID,297,VALID,1.0293,
2008-04-16, 02:13:04,VALID,1001.77,VALID,0,VALID,90.6616,VALID,0,VALID,24.7567,VALID,315,VALID,1.22227,
2008-04-16, 02:14:04,VALID,1001.74,VALID,0,VALID,90.3336,VALID,0,VALID,24.7975,VALID,313,VALID,0.917969,
2008-04-16, 02:15:04,VALID,1001.77,VALID,0,VALID,90.1886,VALID,0,VALID,24.8364,VALID,275,VALID,1.27383,
2008-04-16, 02:16:04,VALID,1001.73,VALID,0,VALID,89.8224,VALID,0,VALID,24.8754,VALID,294,VALID,0.955859,
2008-04-16, 02:17:04,VALID,1001.71,VALID,0,VALID,89.9979,VALID,0,VALID,24.8949,VALID,316,VALID,0.658984,
2008-04-16, 02:18:04,VALID,1001.71,VALID,0,VALID,90.036,VALID,0,VALID,24.8949,VALID,278,VALID,0.910156,
2008-04-16, 02:19:04,VALID,1001.68,VALID,0,VALID,89.7919,VALID,0,VALID,24.854,VALID,343,VALID,1.39453,
2008-04-16, 02:20:04,VALID,1001.65,VALID,0,VALID,90.2268,VALID,0,VALID,24.8949,VALID,339,VALID,0.691797,
2008-04-16, 02:21:04,VALID,1001.61,VALID,0,VALID,89.8606,VALID,0,VALID,24.854,VALID,296,VALID,1.36914,
2008-04-16, 02:22:04,VALID,1001.6,VALID,0,VALID,89.8224,VALID,0,VALID,24.8754,VALID,307,VALID,1.12539,
2008-04-16, 02:23:04,VALID,1001.6,VALID,0,VALID,88.0983,VALID,0,VALID,24.8346,VALID,291,VALID,1.46641,
2008-04-16, 02:24:04,VALID,1001.57,VALID,0,VALID,89.7614,VALID,0,VALID,24.8735,VALID,304,VALID,1.35312,
2008-04-16, 02:25:04,VALID,1001.51,VALID,0,VALID,89.4639,VALID,0,VALID,24.8735,VALID,313,VALID,1.41719,
2008-04-16, 02:26:04,VALID,1001.51,VALID,0,VALID,89.3113,VALID,0,VALID,24.9125,VALID,325,VALID,1.14609,
2008-04-16, 02:27:04,VALID,1001.54,VALID,0,VALID,89.0443,VALID,0,VALID,24.9319,VALID,285,VALID,2.00938,
2008-04-16, 02:28:04,VALID,1001.53,VALID,0,VALID,89.1358,VALID,0,VALID,24.9514,VALID,289,VALID,1.24375,
2008-04-16, 02:29:04,VALID,1001.52,VALID,0,VALID,89.2732,VALID,0,VALID,24.9709,VALID,276,VALID,1.27852,
2008-04-16, 02:30:04,VALID,1001.52,VALID,0,VALID,89.1435,VALID,0,VALID,24.9709,VALID,292,VALID,0.951563,
2008-04-16, 02:31:04,VALID,1001.51,VALID,0,VALID,88.9299,VALID,0,VALID,24.9514,VALID,289,VALID,1.88164,
2008-04-16, 02:32:04,VALID,1001.53,VALID,0,VALID,89.1053,VALID,0,VALID,24.9514,VALID,298,VALID,1.32578,
2008-04-16, 02:33:04,VALID,1001.52,VALID,0,VALID,89.3342,VALID,0,VALID,24.9514,VALID,283,VALID,1.1707,
2008-04-16, 02:34:04,VALID,1001.52,VALID,0,VALID,89.6088,VALID,0,VALID,24.9319,VALID,283,VALID,1.44648,
2008-04-16, 02:35:04,VALID,1001.55,VALID,0,VALID,89.3037,VALID,0,VALID,24.9125,VALID,301,VALID,1.11484,
2008-04-16, 02:36:04,VALID,1001.51,VALID,0,VALID,89.4257,VALID,0,VALID,24.9125,VALID,304,VALID,1.25937,
2008-04-16, 02:37:04,VALID,1001.5,VALID,0,VALID,89.3571,VALID,0,VALID,24.893,VALID,308,VALID,1.12617,
2008-04-16, 02:38:04,VALID,1001.5,VALID,0,VALID,88.4569,VALID,0,VALID,24.8522,VALID,282,VALID,0.701953,
2008-04-16, 02:39:04,VALID,1001.48,VALID,0,VALID,89.4105,VALID,0,VALID,24.854,VALID,303,VALID,1.46484,
2008-04-16, 02:40:04,VALID,1001.47,VALID,0,VALID,89.6012,VALID,0,VALID,24.854,VALID,293,VALID,1.13555,
2008-04-16, 02:41:04,VALID,1001.48,VALID,0,VALID,90.1734,VALID,0,VALID,24.8559,VALID,296,VALID,0.523047,
2008-04-16, 02:42:04,VALID,1001.47,VALID,0,VALID,90.2573,VALID,0,VALID,24.8559,VALID,321,VALID,0.811719,
2008-04-16, 02:43:04,VALID,1001.45,VALID,0,VALID,90.0208,VALID,0,VALID,24.7956,VALID,328,VALID,0.578516,
2008-04-16, 02:44:04,VALID,1001.44,VALID,0,VALID,90.4785,VALID,0,VALID,24.7956,VALID,338,VALID,0.352734,
2008-04-16, 02:45:04,VALID,1001.45,VALID,0,VALID,90.7684,VALID,0,VALID,24.7761,VALID,339,VALID,0.176953,
2008-04-16, 02:46:04,VALID,1001.44,VALID,0,VALID,90.7608,VALID,0,VALID,24.7567,VALID,324,VALID,0.348828,
2008-04-16, 02:47:04,VALID,1001.47,VALID,0,VALID,90.9973,VALID,0,VALID,24.7177,VALID,8,VALID,0.204297,
2008-04-16, 02:48:04,VALID,1001.48,VALID,0,VALID,91.1728,VALID,0,VALID,24.6983,VALID,8,VALID,0.00507812,
2008-04-16, 02:49:04,VALID,1001.48,VALID,0,VALID,91.1117,VALID,0,VALID,24.6788,VALID,348,VALID,0.673047,
2008-04-16, 02:50:04,VALID,1001.5,VALID,0,VALID,91.2796,VALID,0,VALID,24.6593,VALID,15,VALID,0.353906,
2008-04-16, 02:51:04,VALID,1001.5,VALID,0,VALID,91.127,VALID,0,VALID,24.6398,VALID,287,VALID,0.460547,
2008-04-16, 02:52:04,VALID,1001.54,VALID,0,VALID,91.0354,VALID,0,VALID,24.6398,VALID,284,VALID,0.428906,
2008-04-16, 02:53:04,VALID,1001.57,VALID,0,VALID,89.708,VALID,0,VALID,24.6417,VALID,282,VALID,0.403125,
2008-04-16, 02:54:04,VALID,1001.55,VALID,0,VALID,91.0659,VALID,0,VALID,24.6204,VALID,286,VALID,0.460547,
2008-04-16, 02:55:04,VALID,1001.55,VALID,0,VALID,90.593,VALID,0,VALID,24.6398,VALID,293,VALID,1.21172,
2008-04-16, 02:56:04,VALID,1001.55,VALID,0,VALID,91.0736,VALID,0,VALID,24.6593,VALID,341,VALID,0.404297,
2008-04-16, 02:57:04,VALID,1001.52,VALID,0,VALID,90.8142,VALID,0,VALID,24.6593,VALID,295,VALID,0.673437,
2008-04-16, 02:58:04,VALID,1001.56,VALID,0,VALID,90.7608,VALID,0,VALID,24.6807,VALID,294,VALID,0.746094,
2008-04-16, 02:59:04,VALID,1001.54,VALID,0,VALID,90.9439,VALID,0,VALID,24.6788,VALID,290,VALID,0.485938,
2008-04-16, 03:00:04,VALID,1001.54,VALID,0,VALID,90.7455,VALID,0,VALID,24.638,VALID,291,VALID,0.855078,
2008-04-16, 03:01:04,VALID,1001.5,VALID,0,VALID,90.9897,VALID,0,VALID,24.6593,VALID,294,VALID,0.304297,
2008-04-16, 03:02:04,VALID,1001.51,VALID,0,VALID,91.1956,VALID,0,VALID,24.6185,VALID,279,VALID,0.144141,
2008-04-16, 03:03:04,VALID,1001.51,VALID,0,VALID,91.1193,VALID,0,VALID,24.6398,VALID,279,VALID,0.172656,
2008-04-16, 03:04:04,VALID,1001.52,VALID,0,VALID,91.4016,VALID,0.100563,VALID,24.599,VALID,287,VALID,0.269141,
2008-04-16, 03:05:04,VALID,1001.52,VALID,0,VALID,91.4779,VALID,0,VALID,24.6009,VALID,290,VALID,0.0636719,
2008-04-16, 03:06:04,VALID,1001.49,VALID,0,VALID,91.6152,VALID,0,VALID,24.6009,VALID,228,VALID,0.263281,
2008-04-16, 03:07:04,VALID,1001.46,VALID,0,VALID,91.6076,VALID,0,VALID,24.5814,VALID,250,VALID,0.398047,
2008-04-16, 03:08:04,VALID,1001.42,VALID,0,VALID,90.2344,VALID,0,VALID,24.562,VALID,354,VALID,0.667578,
2008-04-16, 03:09:04,VALID,1001.43,VALID,0,VALID,91.2796,VALID,0,VALID,24.5406,VALID,356,VALID,1.12695,
2008-04-16, 03:10:04,VALID,1001.41,VALID,0,VALID,91.3864,VALID,0,VALID,24.5425,VALID,358,VALID,1.31445,
2008-04-16, 03:11:04,VALID,1001.41,VALID,0,VALID,91.6152,VALID,0,VALID,24.562,VALID,341,VALID,0.417188,
2008-04-16, 03:12:04,VALID,1001.39,VALID,0,VALID,91.6,VALID,0,VALID,24.5425,VALID,354,VALID,0.435937,
2008-04-16, 03:13:04,VALID,1001.35,VALID,0,VALID,91.249,VALID,0,VALID,24.562,VALID,355,VALID,1.33555,
2008-04-16, 03:14:04,VALID,1001.38,VALID,0,VALID,91.3635,VALID,0,VALID,24.562,VALID,315,VALID,0.965234,
2008-04-16, 03:15:04,VALID,1001.38,VALID,0,VALID,91.333,VALID,0,VALID,24.5814,VALID,7,VALID,1.08203,
2008-04-16, 03:16:04,VALID,1001.43,VALID,0,VALID,91.3024,VALID,0,VALID,24.5601,VALID,345,VALID,0.691797,
2008-04-16, 03:17:04,VALID,1001.4,VALID,0,VALID,91.249,VALID,0,VALID,24.6009,VALID,11,VALID,0.571094,
2008-04-16, 03:18:04,VALID,1001.4,VALID,0,VALID,91.2719,VALID,0,VALID,24.6009,VALID,338,VALID,0.590625,
2008-04-16, 03:19:04,VALID,1001.41,VALID,0,VALID,91.0888,VALID,0,VALID,24.5814,VALID,4,VALID,1.36445,
2008-04-16, 03:20:04,VALID,1001.37,VALID,0,VALID,91.0202,VALID,0,VALID,24.6204,VALID,3,VALID,1.46836,
2008-04-16, 03:21:04,VALID,1001.4,VALID,0,VALID,91.0659,VALID,0,VALID,24.6009,VALID,350,VALID,0.803516,
2008-04-16, 03:22:04,VALID,1001.42,VALID,0,VALID,91.0125,VALID,0,VALID,24.6204,VALID,357,VALID,0.806641,
2008-04-16, 03:23:04,VALID,1001.44,VALID,0,VALID,90.0513,VALID,0,VALID,24.6204,VALID,321,VALID,0.800391,
2008-04-16, 03:24:04,VALID,1001.44,VALID,0,VALID,90.982,VALID,0,VALID,24.6222,VALID,352,VALID,1.00312,
2008-04-16, 03:25:04,VALID,1001.47,VALID,0,VALID,91.1728,VALID,0.100563,VALID,24.6009,VALID,318,VALID,0.250391,
2008-04-16, 03:26:04,VALID,1001.43,VALID,0,VALID,91.1804,VALID,0,VALID,24.6009,VALID,7,VALID,0.581641,
2008-04-16, 03:27:04,VALID,1001.44,VALID,0,VALID,91.2033,VALID,0,VALID,24.5814,VALID,353,VALID,0.772266,
2008-04-16, 03:28:04,VALID,1001.43,VALID,0,VALID,91.2185,VALID,0,VALID,24.5814,VALID,332,VALID,0.537891,
2008-04-16, 03:29:04,VALID,1001.43,VALID,0,VALID,91.2185,VALID,0,VALID,24.6028,VALID,315,VALID,0.441016,
2008-04-16, 03:30:04,VALID,1001.43,VALID,0,VALID,91.3177,VALID,0,VALID,24.5814,VALID,7,VALID,0.463281,
2008-04-16, 03:31:04,VALID,1001.4,VALID,0,VALID,91.2338,VALID,0,VALID,24.6009,VALID,353,VALID,0.845703,
2008-04-16, 03:32:04,VALID,1001.4,VALID,0,VALID,91.0278,VALID,0.100563,VALID,24.6009,VALID,358,VALID,1.01328,
2008-04-16, 03:33:04,VALID,1001.39,VALID,0,VALID,91.3864,VALID,0.100563,VALID,24.6417,VALID,352,VALID,0.116797,
2008-04-16, 03:34:04,VALID,1001.33,VALID,0,VALID,91.4932,VALID,0,VALID,24.6204,VALID,340,VALID,0.129297,
2008-04-16, 03:35:04,VALID,1001.3,VALID,0,VALID,91.5695,VALID,0.100563,VALID,24.6009,VALID,295,VALID,0.206641,
2008-04-16, 03:36:04,VALID,1001.28,VALID,0,VALID,91.4245,VALID,0,VALID,24.6028,VALID,339,VALID,0.710938,
2008-04-16, 03:37:04,VALID,1001.28,VALID,0,VALID,91.4474,VALID,0.100563,VALID,24.6204,VALID,286,VALID,0.549609,
2008-04-16, 03:38:04,VALID,1001.25,VALID,0,VALID,90.8371,VALID,0,VALID,24.6009,VALID,285,VALID,0.347656,
2008-04-16, 03:39:04,VALID,1001.21,VALID,0,VALID,91.4474,VALID,0,VALID,24.6204,VALID,279,VALID,0.192969,
2008-04-16, 03:40:04,VALID,1001.18,VALID,0,VALID,91.3558,VALID,0.100563,VALID,24.6009,VALID,285,VALID,0.736328,
2008-04-16, 03:41:04,VALID,1001.18,VALID,0,VALID,91.4932,VALID,0,VALID,24.6204,VALID,287,VALID,0.266797,
2008-04-16, 03:42:04,VALID,1001.17,VALID,0,VALID,91.2338,VALID,0.100563,VALID,24.6398,VALID,280,VALID,0.904297,
2008-04-16, 03:43:04,VALID,1001.18,VALID,0,VALID,91.6457,VALID,0,VALID,24.6593,VALID,278,VALID,0.245703,
2008-04-16, 03:44:04,VALID,1001.18,VALID,0,VALID,91.8288,VALID,0,VALID,24.6593,VALID,278,VALID,0.198047,
2008-04-16, 03:45:04,VALID,1001.2,VALID,0,VALID,91.9738,VALID,0,VALID,24.6593,VALID,282,VALID,0.320703,